• In Portugal
  • List of Countries
  • For 7 days
  • Water Temperature
  • Satellite Maps
  • Weather Map
  • Weather Widgets
  • user-avatar
    Login

    Hourly Weather Van

    Today, 11 December, Monday

    Time Temperature Precipitation Wind Pressure Humidity
    00:00 -6°C° 0 mm 2 mps 620 mmHg 55%
    01:00 -6°C° 0 mm 2 mps 620 mmHg 55%
    02:00 -6°C° 0 mm 2 mps 620 mmHg 55%
    03:00 -4°C° 0 mm 1 mps 620 mmHg 56%
    04:00 -4°C° 0 mm 1 mps 620 mmHg 55%
    05:00 -4°C° 0 mm 1 mps 620 mmHg 55%
    06:00 -4°C° 0 mm 1 mps 620 mmHg 55%
    07:00 -4°C° 0 mm 1 mps 620 mmHg 56%
    08:00 -3°C° 0 mm 1 mps 621 mmHg 58%
    09:00 -2°C° 0 mm 1 mps 621 mmHg 59%
    10:00 -1°C° 0 mm 1 mps 621 mmHg 60%
    11:00 +1°C° 0 mm 1 mps 621 mmHg 60%
    12:00 +2°C° 0 mm 1 mps 622 mmHg 60%
    13:00 +2°C° 0 mm 1 mps 622 mmHg 62%
    14:00 +2°C° 0 mm 1 mps 621 mmHg 65%
    15:00 +2°C° 0 mm 1 mps 621 mmHg 67%
    16:00 +1°C° 0 mm 1 mps 622 mmHg 66%
    17:00 0°C° 0 mm 1 mps 622 mmHg 64%
    18:00 -2°C° 0 mm 1 mps 622 mmHg 63%
    19:00 -2°C° 0 mm 1 mps 622 mmHg 63%
    20:00 -2°C° 0 mm 1 mps 622 mmHg 62%
    21:00 -4°C° 0 mm 2 mps 623 mmHg 62%
    22:00 -4°C° 0 mm 2 mps 623 mmHg 60%
    23:00 -4°C° 0 mm 2 mps 623 mmHg 58%

    Tomorrow, 12 December, Tuesday

    Time Temperature Precipitation Wind Pressure Humidity
    00:00 -4°C° 0 mm 2 mps 623 mmHg 56%
    01:00 -4°C° 0 mm 2 mps 623 mmHg 55%
    02:00 -2°C° 0 mm 1 mps 623 mmHg 53%
    03:00 -2°C° 0 mm 1 mps 623 mmHg 52%
    04:00 -1°C° 0 mm 1 mps 623 mmHg 51%
    05:00 -1°C° 0 mm 1 mps 622 mmHg 51%
    06:00 -1°C° 0 mm 1 mps 622 mmHg 50%
    07:00 0°C° 0 mm 1 mps 623 mmHg 51%
    08:00 0°C° 0 mm 1 mps 623 mmHg 51%
    09:00 +1°C° 0 mm 1 mps 623 mmHg 51%
    10:00 +3°C° 0 mm 1 mps 623 mmHg 55%
    11:00 +4°C° 0 mm 1 mps 623 mmHg 59%
    12:00 +6°C° 0 mm 1 mps 623 mmHg 63%
    13:00 +6°C° 0 mm 1 mps 623 mmHg 60%
    14:00 +5°C° 0 mm 1 mps 622 mmHg 58%
    15:00 +5°C° 0 mm 1 mps 622 mmHg 56%
    16:00 +4°C° 0 mm 1 mps 622 mmHg 54%
    17:00 +3°C° 0 mm 1 mps 622 mmHg 52%
    18:00 +1°C° 0 mm 1 mps 622 mmHg 50%
    19:00 -1°C° 0 mm 2 mps 621 mmHg 49%
    20:00 -1°C° 0 mm 2 mps 621 mmHg 48%
    21:00 -1°C° 0 mm 2 mps 621 mmHg 47%
    22:00 -1°C° 0 mm 2 mps 621 mmHg 46%
    23:00 -2°C° 0 mm 2 mps 621 mmHg 46%

    Day after tomorrow, 13 December, Wednesday

    Time Temperature Precipitation Wind Pressure Humidity
    00:00 -2°C° 0 mm 2 mps 621 mmHg 45%
    01:00 -2°C° 0 mm 2 mps 621 mmHg 45%
    02:00 -2°C° 0 mm 2 mps 621 mmHg 44%
    03:00 -2°C° 0 mm 2 mps 621 mmHg 44%
    04:00 -2°C° 0 mm 2 mps 620 mmHg 43%
    05:00 -2°C° 0 mm 2 mps 620 mmHg 43%
    06:00 -2°C° 0 mm 2 mps 620 mmHg 43%
    07:00 -2°C° 0 mm 2 mps 620 mmHg 44%
    08:00 -1°C° 0 mm 2 mps 620 mmHg 45%
    09:00 +1°C° 0 mm 2 mps 620 mmHg 45%
    10:00 +2°C° 0 mm 2 mps 620 mmHg 49%
    11:00 +4°C° 0 mm 2 mps 620 mmHg 52%
    12:00 +5°C° 0 mm 2 mps 620 mmHg 55%
    13:00 +6°C° 0 mm 1 mps 620 mmHg 55%
    14:00 +6°C° 0 mm 1 mps 619 mmHg 56%
    15:00 +5°C° 0 mm 1 mps 619 mmHg 56%
    16:00 +4°C° 0 mm 1 mps 619 mmHg 56%
    17:00 +2°C° 0 mm 2 mps 618 mmHg 55%
    18:00 -1°C° 0 mm 2 mps 618 mmHg 55%
    19:00 -1°C° 0 mm 2 mps 618 mmHg 54%
    20:00 -2°C° 0 mm 2 mps 618 mmHg 53%
    21:00 -2°C° 0 mm 2 mps 618 mmHg 53%
    22:00 -2°C° 0 mm 2 mps 618 mmHg 52%
    23:00 -2°C° 0 mm 2 mps 618 mmHg 51%

    14 December, Thursday

    Time Temperature Precipitation Wind Pressure Humidity
    00:00 -2°C° 0 mm 2 mps 618 mmHg 50%
    01:00 -3°C° 0 mm 2 mps 618 mmHg 50%
    02:00 -3°C° 0 mm 2 mps 617 mmHg 49%
    03:00 -3°C° 0 mm 2 mps 617 mmHg 49%
    04:00 -3°C° 0 mm 2 mps 617 mmHg 49%
    05:00 -3°C° 0 mm 2 mps 617 mmHg 48%
    06:00 -3°C° 0 mm 2 mps 617 mmHg 48%
    07:00 -2°C° 0 mm 2 mps 618 mmHg 49%
    08:00 -2°C° 0 mm 2 mps 618 mmHg 49%
    09:00 -1°C° 0 mm 2 mps 619 mmHg 49%
    10:00 +2°C° 0 mm 1 mps 619 mmHg 51%
    11:00 +4°C° 0 mm 1 mps 619 mmHg 52%
    12:00 +6°C° 0 mm 1 mps 619 mmHg 53%
    13:00 +5°C° 0 mm 1 mps 618 mmHg 54%
    14:00 +5°C° 0 mm 1 mps 618 mmHg 54%
    15:00 +4°C° 0 mm 0 mps 618 mmHg 54%
    16:00 +3°C° 0 mm 1 mps 618 mmHg 55%
    17:00 +2°C° 0 mm 1 mps 617 mmHg 55%
    18:00 0°C° 0 mm 1 mps 617 mmHg 56%
    19:00 0°C° 0 mm 1 mps 617 mmHg 56%
    20:00 0°C° 0 mm 1 mps 617 mmHg 56%
    21:00 0°C° 0 mm 1 mps 617 mmHg 56%
    22:00 0°C° 0 mm 1 mps 617 mmHg 57%
    23:00 -1°C° 0 mm 1 mps 617 mmHg 57%

    15 December, Friday

    Time Temperature Precipitation Wind Pressure Humidity
    00:00 -1°C° 0 mm 1 mps 617 mmHg 58%
    01:00 -1°C° 0 mm 1 mps 617 mmHg 58%
    02:00 -1°C° 0 mm 1 mps 617 mmHg 58%
    03:00 -1°C° 0 mm 1 mps 617 mmHg 59%
    04:00 -1°C° 0 mm 1 mps 617 mmHg 59%
    05:00 -1°C° 0 mm 1 mps 617 mmHg 59%
    06:00 -2°C° 0 mm 1 mps 617 mmHg 59%
    07:00 -1°C° 0 mm 1 mps 617 mmHg 58%
    08:00 0°C° 0 mm 1 mps 618 mmHg 58%
    09:00 +1°C° 0 mm 1 mps 618 mmHg 57%
    10:00 +2°C° 0 mm 1 mps 618 mmHg 56%
    11:00 +3°C° 0 mm 1 mps 618 mmHg 56%
    12:00 +5°C° 0 mm 1 mps 618 mmHg 55%
    13:00 +5°C° 0 mm 1 mps 618 mmHg 56%
    14:00 +4°C° 0 mm 1 mps 618 mmHg 56%
    15:00 +4°C° 0 mm 1 mps 618 mmHg 57%
    16:00 +3°C° 0 mm 1 mps 618 mmHg 59%
    17:00 +1°C° 0 mm 1 mps 618 mmHg 60%
    18:00 0°C° 0 mm 1 mps 618 mmHg 61%
    19:00 0°C° 0 mm 1 mps 618 mmHg 60%
    20:00 0°C° 0 mm 1 mps 618 mmHg 60%
    21:00 -1°C° 0 mm 1 mps 618 mmHg 59%
    22:00 -1°C° 0 mm 1 mps 618 mmHg 58%
    23:00 -1°C° 0 mm 1 mps 618 mmHg 58%

    16 December, Saturday

    Time Temperature Precipitation Wind Pressure Humidity
    00:00 -1°C° 0 mm 1 mps 618 mmHg 57%
    01:00 -1°C° 0 mm 1 mps 618 mmHg 57%
    02:00 -2°C° 0 mm 1 mps 618 mmHg 57%
    03:00 -2°C° 0 mm 1 mps 618 mmHg 57%
    04:00 -2°C° 0 mm 1 mps 619 mmHg 57%
    05:00 -2°C° 0 mm 1 mps 619 mmHg 57%
    06:00 -2°C° 0 mm 1 mps 619 mmHg 57%
    07:00 -1°C° 0 mm 1 mps 619 mmHg 56%
    08:00 -1°C° 0 mm 1 mps 620 mmHg 56%
    09:00 0°C° 0 mm 1 mps 620 mmHg 56%
    10:00 +1°C° 0 mm 1 mps 620 mmHg 54%
    11:00 +3°C° 0 mm 1 mps 620 mmHg 53%
    12:00 +4°C° 0 mm 1 mps 620 mmHg 52%
    13:00 +4°C° 0 mm 1 mps 620 mmHg 53%
    14:00 +4°C° 0 mm 1 mps 620 mmHg 54%
    15:00 +4°C° 0 mm 1 mps 620 mmHg 55%
    16:00 +2°C° 0 mm 1 mps 619 mmHg 57%
    17:00 +1°C° 0 mm 1 mps 619 mmHg 59%
    18:00 0°C° 0 mm 1 mps 619 mmHg 62%
    19:00 -1°C° 0 mm 1 mps 620 mmHg 61%
    20:00 -1°C° 0 mm 1 mps 620 mmHg 61%
    21:00 -1°C° 0 mm 1 mps 620 mmHg 61%
    22:00 -1°C° 0 mm 1 mps 620 mmHg 60%
    23:00 -1°C° 0 mm 1 mps 620 mmHg 60%
    Show more